Theta_e
336 336 335 334 335 334 333 331 332 330 331 334 336 336 335 334 335 337 338 341 340 340 336 336 335 336 337 335 337 338 337 335 332
333 334 333 332 334 333 333 334 333 330 330 333 334 333 333 334 334 336 338 339 340 339 337 336 336 336 335 335 335 335 336 335 332
326 330 330 331 331 333 333 333 334 331 330 333 333 332 332 331 331 335 339 336 338 338 338 336 336 335 335 334 334 334 333 333 332
324 324 327 328 329 331 332 332 332 333 330 333 333 332 331 330 332 334 337 336 337 337 335 336 337 337 336 336 335 334 333 332 331
323 323 324 327 330 330 332 331 332 335 332 333 333 332 330 331 333 336 337 334 337 336 335 335 336 336 335 336 335 335 336 334 334
327 327 329 326 329 329 330 330 332 331 331 333 332 331 330 331 333 336 334 335 335 334 335 335 337 334 334 334 334 334 333 333 331
323 323 325 328 329 329 330 331 328 326 331 332 331 330 330 330 331 332 332 333 333 334 334 334 333 334 333 334 333 332 331 327 327
320 321 322 324 325 327 329 326 323 325 329 331 330 329 329 329 330 330 330 332 333 333 333 334 333 334 333 331 330 328 325 322 322
320 320 322 322 323 324 325 323 323 325 329 329 329 329 329 329 328 328 328 329 330 332 332 332 333 332 330 329 327 323 322 321 320
317 318 320 321 322 321 322 321 321 324 327 327 327 328 328 328 327 328 328 328 329 330 331 332 332 330 329 326 323 322 323 323 322
315 316 318 321 320 320 321 321 321 323 324 324 324 324 324 325 326 326 326 326 326 326 329 331 331 330 328 327 326 325 324 324 323
314 315 317 319 320 321 321 321 319 321 322 321 321 322 322 323 324 324 323 323 323 326 327 329 329 329 329 328 328 326 325 325 325
314 314 316 318 320 320 319 320 318 318 319 318 317 318 318 319 319 319 318 318 320 324 326 327 327 327 327 327 327 326 325 324 325
313 313 313 316 319 319 318 318 317 315 315 314 313 312 313 314 314 315 316 317 317 318 321 325 325 325 325 326 326 325 324 323 322
312 312 312 314 317 318 317 316 315 314 314 311 310 310 311 311 311 312 313 315 316 317 317 319 322 324 323 325 324 322 323 322 321
310 310 311 312 315 318 316 315 315 312 311 309 305 306 307 308 308 309 310 312 314 315 315 316 317 319 322 322 323 323 322 319 319
309 309 308 310 312 316 316 315 313 311 310 309 305 307 305 303 303 304 306 308 310 311 312 314 316 319 320 320 321 321 321 319 317
308 307 307 307 310 314 315 315 315 310 307 310 306 306 309 303 301 301 302 303 305 307 309 312 315 317 318 319 320 319 318 317 316
306 305 305 305 307 311 314 314 313 311 307 306 304 303 302 305 304 299 300 300 301 302 304 308 311 314 315 316 316 315 314 314 313
304 303 303 303 305 308 312 312 311 310 308 306 303 302 301 300 302 304 300 298 299 299 300 302 307 309 312 313 313 311 311 311 309
Wind_Speed
7 7 7 6 4 6 8 8 8 8 10 12 13 13 11 11 13 12 13 13 12 12 14 14 14 15 15 15 15 14 13 13 14
8 7 7 6 5 5 6 7 7 7 8 10 11 11 10 11 12 12 10 11 11 11 11 13 12 12 13 12 13 12 12 11 11
10 9 9 8 7 5 6 7 6 6 8 10 11 11 10 10 10 11 10 9 10 10 10 11 11 11 11 12 11 11 11 10 9
7 9 10 9 9 7 8 8 5 7 9 11 11 11 10 10 11 10 9 9 9 9 10 10 10 10 10 10 10 10 9 8 7
7 8 9 11 11 9 10 9 6 10 10 12 11 11 11 12 12 10 8 9 9 9 9 9 10 10 10 9 9 8 7 6 5
12 10 8 11 11 10 9 10 10 9 10 12 12 12 12 13 12 9 8 8 8 8 9 9 11 11 10 10 10 8 7 7 7
13 11 8 10 11 10 12 12 9 6 10 12 12 12 12 12 12 9 8 6 4 8 9 10 11 11 10 12 11 8 8 8 8
10 13 10 12 9 11 12 10 7 9 11 13 11 11 12 12 12 10 7 3 6 6 7 9 11 12 11 9 7 8 7 7 7
13 13 14 13 14 13 9 8 9 10 12 12 13 14 13 12 12 11 10 8 5 6 7 9 12 13 8 6 9 8 7 5 6
12 15 15 16 17 13 12 11 11 11 12 13 13 14 13 13 12 10 11 11 8 7 4 9 11 10 7 8 8 5 4 3 3
9 11 15 16 16 16 16 13 13 13 12 13 12 12 11 11 12 9 10 9 7 5 4 5 9 9 9 9 6 5 4 3 2
9 10 12 14 15 16 16 16 15 14 12 12 11 10 10 10 11 10 8 6 5 6 5 5 7 10 10 8 9 9 9 10 7
10 11 11 13 15 16 16 16 18 15 12 12 10 9 8 8 8 8 6 5 3 5 6 8 10 7 10 12 13 15 14 15 14
12 11 12 14 16 17 17 17 18 16 12 10 9 7 6 5 6 6 7 9 7 9 8 10 10 11 8 10 13 13 14 14 13
13 13 13 14 17 19 19 19 17 15 15 11 9 7 5 5 5 6 6 7 9 11 8 8 7 11 11 10 10 9 12 13 14
15 14 15 17 19 21 20 19 19 18 16 15 8 5 3 4 5 6 6 7 9 10 9 8 9 9 9 10 9 12 13 12 11
16 16 17 18 20 22 24 24 21 16 21 9 6 2 3 6 6 6 6 7 8 9 9 9 10 12 13 12 11 11 13 12 10
16 16 17 18 21 24 26 26 27 18 23 18 6 3 4 5 7 7 7 7 8 8 9 10 12 13 13 15 16 14 13 11 8
16 17 17 18 21 24 26 27 28 26 23 21 12 5 5 3 3 6 9 10 10 10 9 11 12 15 15 14 14 12 8 4 3
17 17 18 19 21 23 26 28 29 28 26 24 14 7 5 5 2 3 6 11 13 12 11 11 12 13 14 14 13 10 9 6 4
Wind_Direction
179 171 148 131 121 113 111 113 108 105 109 112 115 115 114 109 103 102 106 101 106 107 117 117 111 110 108 107 112 116 111 99 90
183 189 170 152 154 134 122 110 111 113 113 119 125 116 116 111 107 108 105 105 109 113 120 123 124 122 119 116 118 118 112 104 90
197 196 188 176 166 151 129 120 120 123 126 134 130 120 113 107 109 107 101 112 111 115 117 120 124 126 123 122 120 115 111 109 104
186 188 187 184 172 175 137 122 141 127 138 142 136 124 115 111 108 107 102 110 116 121 119 119 121 126 127 126 123 121 122 120 115
152 167 177 183 174 165 152 143 140 129 144 148 143 131 119 110 108 99 114 122 121 125 125 121 119 122 129 133 124 122 125 118 111
159 162 167 176 173 169 166 145 143 153 151 148 146 142 128 118 107 95 101 108 124 123 131 130 121 124 128 128 133 137 119 110 111
176 167 151 147 152 158 147 147 151 154 156 150 152 140 132 124 113 102 96 98 130 138 143 135 130 131 128 119 121 120 113 107 103
186 170 168 168 179 167 159 171 170 187 172 161 158 149 140 122 110 104 92 105 125 144 145 138 135 135 122 116 112 114 107 99 93
190 184 182 176 180 177 178 174 187 176 171 163 151 144 134 126 117 108 98 78 94 126 158 149 142 131 128 157 123 114 110 96 82
196 195 191 188 191 185 194 192 190 179 166 161 155 146 139 129 124 116 113 104 79 97 128 149 143 141 164 137 113 109 95 87 80
189 191 195 197 196 192 193 184 189 175 168 155 155 153 150 142 136 129 109 110 108 84 71 155 149 136 142 120 107 98 88 78 87
196 192 192 194 195 195 195 191 190 177 170 158 155 155 159 153 146 155 130 103 83 68 89 111 152 145 135 124 107 92 81 75 68
211 202 196 192 188 187 184 181 179 176 174 161 157 158 164 173 178 184 175 162 198 147 99 115 113 142 136 119 108 100 101 100 86
213 210 206 199 194 190 185 178 180 173 170 157 157 157 160 159 168 181 178 181 200 206 206 98 130 123 128 132 117 106 103 98 86
216 217 212 205 198 193 193 185 178 178 180 159 147 142 161 183 182 169 166 167 185 207 199 199 135 128 126 130 129 127 116 111 106
219 218 214 210 206 201 201 190 182 169 184 150 118 110 159 196 193 185 183 184 187 197 208 208 196 182 159 146 140 131 116 120 114
225 222 218 213 209 204 201 198 178 179 179 173 129 176 224 222 204 189 185 186 185 188 190 188 174 158 161 162 150 136 125 117 120
229 226 222 218 214 210 205 201 196 178 188 193 176 162 213 157 207 203 195 190 188 189 188 185 179 170 171 166 156 139 127 117 117
229 229 226 223 220 216 212 208 204 194 185 194 213 202 153 173 171 217 212 206 202 197 192 188 187 183 187 181 178 171 181 167 172
233 232 230 227 224 222 218 212 208 205 194 193 190 189 175 160 149 163 194 221 216 210 206 202 197 193 193 193 194 185 188 174 167